Tracking 33190 objects as of 9-Feb-2026
HD Live streaming from Space Station
objects crossing your sky now

CZ-6A DEB

Track CZ-6A DEB now!
10-day predictions


NORAD ID: 56613
Int'l Code: 2022-151AEM
Perigee: 823.4 km
Apogee: 826.2 km
Inclination: 98.8 °
Period: 101.2 minutes
Semi major axis: 7195 km
RCS: Unknown
Launch date: November 11, 2022
Source: People's Republic of China (PRC)
Launch site: Taiyaun Space Center, China (TSC)

Note: This is SATELLITE DEBRIS
Your satellite tracking list
Your tracking list is empty




NASA's NSSDC Master Catalog

Two Line Element Set (TLE):
1 56613U 22151AEM 26040.01310988  .00001417  00000-0  65801-3 0  9990
2 56613  98.8145  65.2074 0001979 309.5149  50.5854 14.22282489150004
Source of the keplerian elements: AFSPC